Location: Winthrop
(48.4780°N, 120.1850°W)
Time: 04:28:03
(UTC-08:00)

Vanguard 1 Rocket - Pass Details

Date: 07 December 2023
Orbit: 654 x 4218 km, 34.3° (Epoch: 24 February)

Event Time Altitude Azimuth Distance (km) Brightness Sun altitude
Rises 08:27:49 0° 268° (W) 7,270 11.6 5.5°
Reaches altitude 10° 08:34:00 10° 261° (W) 5,654 11.1 6.3°
Maximum altitude 08:46:30 33° 206° (SSW) 2,774 10.2 7.7°
Drops below altitude 10° 08:53:47 10° 146° (SE) 3,247 13.1 8.5°
Sets 08:56:18 0° 135° (SE) 3,897 13.1 8.8°
